Location: Peterborough
(44.3091°N, 78.3197°W)
Time: 10:33:00
(UTC-04:00)

Transit 4A - Visible Passes

Search period start: 28 September 2023 00:00
Search period end: 08 October 2023 00:00
Orbit: 862 x 982 km, 66.8° (Epoch: 27 September)

Date Brightness Start Highest point End Pass type
(mag) Time Alt. Az. Time Alt. Az. Time Alt. Az.
28 Sep 8.8 20:18:05 10° NNW 20:23:50 34° NE 20:26:38 24° E visible
28 Sep 8.5 22:04:20 10° NW 22:10:09 52° WSW 22:10:09 52° WSW visible
29 Sep 8.4 20:27:06 10° NNW 20:33:12 45° NE 20:35:50 30° ESE visible
29 Sep 9.0 22:13:46 10° NW 22:19:21 36° WSW 22:19:21 36° WSW visible
30 Sep 8.0 20:36:11 10° NNW 20:42:29 62° NE 20:45:06 35° ESE visible
30 Sep 9.6 22:23:23 10° NW 22:28:21 25° WSW 22:28:38 25° WSW visible
01 Oct 7.8 20:45:18 10° NNW 20:51:41 86° ENE 20:54:28 35° SE visible
01 Oct 10.1 22:33:24 10° WNW 22:37:10 17° WSW 22:37:59 16° WSW visible
02 Oct 8.1 20:54:31 10° NW 21:00:48 68° WSW 21:03:56 30° S visible
02 Oct 10.5 22:44:55 10° W 22:45:55 10° W 22:46:54 10° WSW visible
03 Oct 8.6 19:17:27 10° NNW 19:23:19 37° NE 19:29:00 10° ESE visible
03 Oct 8.8 21:03:50 10° NW 21:09:50 47° WSW 21:13:32 22° S visible
04 Oct 8.2 19:26:30 10° NNW 19:32:40 50° NE 19:38:37 10° SE visible
04 Oct 9.4 21:13:18 10° NW 21:18:47 32° WSW 21:23:18 14° SSW visible
05 Oct 7.9 19:35:35 10° NNW 19:41:55 69° NE 19:48:02 10° SE visible
05 Oct 10.0 21:23:01 10° WNW 21:27:39 22° WSW 21:32:10 10° SSW visible
06 Oct 8.0 19:44:43 10° NNW 19:51:05 85° WSW 19:57:12 10° SSE visible
06 Oct 10.5 21:33:16 10° WNW 21:36:27 14° W 21:39:34 10° SW visible
07 Oct 8.5 19:53:58 10° NW 20:00:10 60° WSW 20:06:09 10° SSE visible
